When you browse on this site, cookies collect data to enhance your experience and personalize the content and advertising you see.
Visit our Privacy Policy to learn more. By continuing to use the site, you agree to this use of cookies and data.
  • In Romania
  • List of Countries
  • For 7 days
  • Water Temperature
  • Weather Map
  • Weather Widgets
  • user-avatar
    Login

    Hourly Weather Rio de Janeiro

    Today, 20 January, Monday

    Time Temperature Precipitation Wind Pressure Humidity
    00:00 +24°C° 0 mm 2 mps 759 mmHg 81%
    01:00 +24°C° 0 mm 2 mps 759 mmHg 81%
    02:00 +24°C° 0 mm 1 mps 758 mmHg 81%
    03:00 +24°C° 0 mm 1 mps 758 mmHg 83%
    04:00 +24°C° 0 mm 1 mps 758 mmHg 83%
    05:00 +24°C° 0 mm 1 mps 758 mmHg 83%
    06:00 +24°C° 0 mm 1 mps 758 mmHg 83%
    07:00 +25°C° 0 mm 1 mps 758 mmHg 81%
    08:00 +25°C° 0 mm 1 mps 758 mmHg 79%
    09:00 +26°C° 0 mm 1 mps 759 mmHg 73%
    10:00 +26°C° 0.2 mm 1 mps 758 mmHg 74%
    11:00 +26°C° 0.2 mm 1 mps 758 mmHg 75%
    12:00 +26°C° 0.2 mm 1 mps 758 mmHg 76%
    13:00 +26°C° 0 mm 2 mps 757 mmHg 73%
    14:00 +27°C° 0 mm 2 mps 757 mmHg 69%
    15:00 +28°C° 0 mm 2 mps 756 mmHg 66%
    16:00 +27°C° 0 mm 2 mps 756 mmHg 67%
    17:00 +27°C° 0 mm 3 mps 756 mmHg 69%
    18:00 +27°C° 0 mm 3 mps 756 mmHg 70%
    19:00 +26°C° 0.2 mm 2 mps 756 mmHg 73%
    20:00 +26°C° 0.2 mm 2 mps 757 mmHg 77%
    21:00 +25°C° 0.2 mm 2 mps 757 mmHg 80%
    22:00 +25°C° 0.3 mm 1 mps 757 mmHg 81%
    23:00 +24°C° 0.3 mm 1 mps 757 mmHg 82%

    Tomorrow, 21 January, Tuesday

    Time Temperature Precipitation Wind Pressure Humidity
    00:00 +24°C° 0.3 mm 1 mps 757 mmHg 83%
    01:00 +24°C° 0.1 mm 1 mps 756 mmHg 84%
    02:00 +23°C° 0.1 mm 1 mps 756 mmHg 85%
    03:00 +23°C° 0.1 mm 1 mps 755 mmHg 85%
    04:00 +23°C° 0 mm 1 mps 755 mmHg 85%
    05:00 +23°C° 0 mm 1 mps 755 mmHg 85%
    06:00 +23°C° 0 mm 1 mps 755 mmHg 85%
    07:00 +25°C° 0 mm 1 mps 756 mmHg 78%
    08:00 +25°C° 0 mm 0 mps 756 mmHg 71%
    09:00 +27°C° 0 mm 0 mps 756 mmHg 64%
    10:00 +29°C° 0 mm 1 mps 756 mmHg 62%
    11:00 +30°C° 0 mm 2 mps 755 mmHg 61%
    12:00 +30°C° 0 mm 3 mps 755 mmHg 59%
    13:00 +30°C° 0.1 mm 3 mps 755 mmHg 62%
    14:00 +29°C° 0.1 mm 3 mps 754 mmHg 64%
    15:00 +28°C° 0.1 mm 4 mps 754 mmHg 67%
    16:00 +28°C° 0 mm 3 mps 754 mmHg 69%
    17:00 +27°C° 0 mm 3 mps 754 mmHg 71%
    18:00 +26°C° 0 mm 2 mps 754 mmHg 73%
    19:00 +26°C° 0 mm 2 mps 755 mmHg 74%
    20:00 +26°C° 0 mm 2 mps 755 mmHg 75%
    21:00 +25°C° 0 mm 2 mps 755 mmHg 77%
    22:00 +25°C° 0 mm 2 mps 756 mmHg 78%
    23:00 +25°C° 0 mm 1 mps 756 mmHg 80%

    Day after tomorrow, 22 January, Wednesday

    Time Temperature Precipitation Wind Pressure Humidity
    00:00 +24°C° 0 mm 1 mps 756 mmHg 82%
    01:00 +24°C° 0 mm 1 mps 755 mmHg 83%
    02:00 +24°C° 0 mm 1 mps 755 mmHg 84%
    03:00 +24°C° 0 mm 1 mps 754 mmHg 85%
    04:00 +24°C° 0 mm 1 mps 754 mmHg 85%
    05:00 +24°C° 0 mm 1 mps 755 mmHg 85%
    06:00 +24°C° 0 mm 1 mps 755 mmHg 85%
    07:00 +25°C° 0 mm 1 mps 755 mmHg 78%
    08:00 +27°C° 0 mm 1 mps 755 mmHg 71%
    09:00 +29°C° 0 mm 1 mps 755 mmHg 64%
    10:00 +29°C° 0 mm 2 mps 755 mmHg 61%
    11:00 +30°C° 0 mm 3 mps 755 mmHg 59%
    12:00 +31°C° 0 mm 3 mps 755 mmHg 56%
    13:00 +30°C° 0.2 mm 4 mps 754 mmHg 60%
    14:00 +30°C° 0.2 mm 4 mps 754 mmHg 65%
    15:00 +29°C° 0.2 mm 4 mps 753 mmHg 70%
    16:00 +28°C° 0.3 mm 4 mps 754 mmHg 73%
    17:00 +28°C° 0.3 mm 4 mps 754 mmHg 75%
    18:00 +27°C° 0.3 mm 4 mps 754 mmHg 78%
    19:00 +27°C° 0.1 mm 3 mps 754 mmHg 79%
    20:00 +26°C° 0.1 mm 3 mps 754 mmHg 80%
    21:00 +26°C° 0.1 mm 3 mps 755 mmHg 81%
    22:00 +26°C° 0.7 mm 2 mps 754 mmHg 83%
    23:00 +25°C° 0.7 mm 2 mps 754 mmHg 86%

    23 January, Thursday

    Time Temperature Precipitation Wind Pressure Humidity
    00:00 +25°C° 0.7 mm 2 mps 754 mmHg 88%
    01:00 +25°C° 1.2 mm 2 mps 753 mmHg 89%
    02:00 +25°C° 1.2 mm 2 mps 753 mmHg 90%
    03:00 +25°C° 1.2 mm 2 mps 752 mmHg 91%
    04:00 +25°C° 2 mm 2 mps 752 mmHg 92%
    05:00 +24°C° 2 mm 3 mps 752 mmHg 93%
    06:00 +24°C° 2 mm 3 mps 752 mmHg 93%
    07:00 +24°C° 8.5 mm 3 mps 752 mmHg 94%
    08:00 +23°C° 8.5 mm 4 mps 753 mmHg 94%
    09:00 +23°C° 8.5 mm 4 mps 753 mmHg 95%
    10:00 +23°C° 6.2 mm 4 mps 752 mmHg 94%
    11:00 +23°C° 6.2 mm 4 mps 752 mmHg 94%
    12:00 +23°C° 6.2 mm 4 mps 752 mmHg 93%
    13:00 +23°C° 1.4 mm 4 mps 752 mmHg 92%
    14:00 +23°C° 1.4 mm 4 mps 752 mmHg 92%
    15:00 +24°C° 1.4 mm 3 mps 752 mmHg 92%
    16:00 +24°C° 0.9 mm 3 mps 752 mmHg 91%
    17:00 +24°C° 0.9 mm 3 mps 752 mmHg 90%
    18:00 +24°C° 0.9 mm 3 mps 752 mmHg 90%
    19:00 +24°C° 0.2 mm 3 mps 752 mmHg 89%
    20:00 +24°C° 0.2 mm 3 mps 753 mmHg 89%
    21:00 +24°C° 0.2 mm 3 mps 753 mmHg 88%
    22:00 +24°C° 0.1 mm 2 mps 753 mmHg 88%
    23:00 +24°C° 0.1 mm 2 mps 753 mmHg 88%

    24 January, Friday

    Time Temperature Precipitation Wind Pressure Humidity
    00:00 +24°C° 0.1 mm 2 mps 752 mmHg 87%
    01:00 +24°C° 0.1 mm 2 mps 752 mmHg 88%
    02:00 +23°C° 0.1 mm 2 mps 751 mmHg 88%
    03:00 +23°C° 0.1 mm 2 mps 751 mmHg 88%
    04:00 +23°C° 0 mm 2 mps 751 mmHg 87%
    05:00 +23°C° 0 mm 2 mps 751 mmHg 87%
    06:00 +24°C° 0 mm 2 mps 752 mmHg 86%
    07:00 +24°C° 0.1 mm 2 mps 752 mmHg 85%
    08:00 +24°C° 0.1 mm 2 mps 752 mmHg 83%
    09:00 +24°C° 0.1 mm 2 mps 752 mmHg 82%
    10:00 +25°C° 0.4 mm 2 mps 752 mmHg 80%
    11:00 +25°C° 0.4 mm 2 mps 752 mmHg 78%
    12:00 +26°C° 0.4 mm 2 mps 752 mmHg 75%
    13:00 +26°C° 0.2 mm 2 mps 752 mmHg 75%
    14:00 +26°C° 0.2 mm 2 mps 751 mmHg 74%
    15:00 +26°C° 0.2 mm 2 mps 751 mmHg 73%
    16:00 +26°C° 0 mm 2 mps 751 mmHg 74%
    17:00 +26°C° 0 mm 2 mps 751 mmHg 75%
    18:00 +26°C° 0 mm 2 mps 752 mmHg 76%
    19:00 +25°C° 0.1 mm 2 mps 752 mmHg 78%
    20:00 +25°C° 0.1 mm 2 mps 752 mmHg 80%
    21:00 +25°C° 0.1 mm 3 mps 753 mmHg 82%
    22:00 +24°C° 0.2 mm 3 mps 753 mmHg 83%
    23:00 +24°C° 0.2 mm 3 mps 753 mmHg 84%

    25 January, Saturday

    Time Temperature Precipitation Wind Pressure Humidity
    00:00 +24°C° 0.2 mm 3 mps 754 mmHg 85%
    01:00 +24°C° 0 mm 2 mps 753 mmHg 85%
    02:00 +23°C° 0 mm 2 mps 753 mmHg 86%
    03:00 +23°C° 0 mm 2 mps 753 mmHg 86%
    04:00 +23°C° 0 mm 2 mps 753 mmHg 85%
    05:00 +23°C° 0 mm 2 mps 753 mmHg 85%
    06:00 +24°C° 0 mm 2 mps 754 mmHg 84%
    07:00 +25°C° 0 mm 2 mps 754 mmHg 76%
    08:00 +27°C° 0 mm 2 mps 755 mmHg 69%
    09:00 +29°C° 0 mm 3 mps 755 mmHg 61%
    10:00 +29°C° 0 mm 3 mps 755 mmHg 59%
    11:00 +30°C° 0 mm 4 mps 755 mmHg 57%
    12:00 +32°C° 0 mm 4 mps 755 mmHg 54%
    13:00 +30°C° 0 mm 4 mps 754 mmHg 56%
    14:00 +30°C° 0 mm 4 mps 754 mmHg 58%
    15:00 +30°C° 0 mm 4 mps 754 mmHg 59%
    16:00 +29°C° 0 mm 3 mps 754 mmHg 63%
    17:00 +28°C° 0 mm 3 mps 754 mmHg 66%
    18:00 +28°C° 0 mm 2 mps 755 mmHg 70%
    19:00 +27°C° 0 mm 2 mps 755 mmHg 72%
    20:00 +26°C° 0 mm 1 mps 756 mmHg 74%
    21:00 +26°C° 0 mm 1 mps 756 mmHg 76%
    22:00 +25°C° 0 mm 1 mps 757 mmHg 78%
    23:00 +25°C° 0 mm 1 mps 757 mmHg 80%
    Show more